[Date Prev][Date Next][Thread Prev][Thread Next] - [Date Index][Thread Index][Author Index]

ISS 2Line Keps 11/28







ISS
1 25544U 98067A   02332.19187444  .00030706  00000-0  40000-3 0  4244
2 25544  51.6406 309.4816 0009502 187.4483 240.0153 15.58410121229552



_________________________________________________________________
STOP MORE SPAM with the new MSN 8 and get 2 months FREE* 
http://join.msn.com/?page=features/junkmail

----
Via the sarex mailing list at AMSAT.ORG courtesy of AMSAT-NA.
To unsubscribe, send "unsubscribe sarex" to Majordomo@amsat.org



AMSAT Top AMSAT Home